Vorticity
6 14 16 7 6 1 13 10 2 21 13 20 10 10 -7 43 -9 -3 -8 9 9 0 4 6 3 3 5 6 7 8 7 8 6 6 4 5 6 5 4 4 5 6 6 7
7 6 17 21 0 3 4 19 -2 13 -1 20 8 25 -4 11 34 11 -6 -10 3 7 12 7 11 1 5 6 5 6 6 7 11 6 6 5 6 6 6 4 4 5 7 7
1 6 11 9 14 9 8 5 20 2 0 17 -1 10 28 -4 17 13 19 -3 -21 1 4 4 15 7 2 8 3 0 3 5 8 4 9 8 6 6 4 5 6 5 6 8
1 10 7 7 7 8 20 6 7 11 14 8 22 12 12 27 -2 -1 24 6 -17 -12 -14 -8 10 15 4 -1 3 2 -6 -2 13 7 7 6 -4 5 6 5 5 5 6 7
13 13 15 11 11 3 3 9 4 0 12 15 12 2 44 22 21 0 -3 10 5 7 -21 25 -9 16 -4 -6 -9 -4 -5 8 -2 17 3 2 11 8 6 6 5 5 6 8
16 17 18 19 7 14 9 6 11 6 16 15 5 -3 28 22 13 20 21 1 11 13 7 -12 8 16 7 -7 4 8 12 8 11 2 8 12 11 7 7 7 6 5 7 9
20 5 4 8 14 11 12 9 12 16 13 -1 24 21 -20 3 34 17 5 40 23 7 10 -10 -17 2 10 2 4 8 8 4 -3 -2 -3 11 10 9 8 8 6 6 8 10
2 12 4 -4 5 8 10 5 -1 10 7 0 12 8 13 2 21 -4 22 21 8 22 9 6 6 4 8 -6 -9 7 3 1 2 2 3 10 12 11 10 8 6 7 10 10
18 6 -7 20 15 4 12 13 7 5 12 11 8 12 10 -19 15 9 -5 18 20 21 2 7 11 7 16 17 12 13 4 13 7 7 6 10 14 12 9 7 7 8 10 8
2 12 20 11 3 19 3 2 12 12 9 7 16 17 -15 11 22 15 -4 -4 13 29 18 24 15 2 9 9 11 12 5 3 6 5 10 12 15 12 9 7 7 9 9 9
22 12 -16 7 21 5 22 8 1 2 4 6 4 12 0 -20 25 46 -14 34 -1 12 28 18 25 19 3 5 7 4 5 9 10 8 11 16 13 10 7 8 9 9 9 9
13 16 -9 20 20 15 7 6 9 -2 18 1 2 13 -2 6 33 43 31 24 33 21 13 26 24 28 24 11 9 11 10 10 8 14 15 14 11 8 7 9 9 9 8 6
5 -3 12 26 12 1 16 16 19 20 -2 -0 -9 -19 -4 -27 -3 -23 -17 -0 -4 9 23 11 8 9 10 9 8 9 10 12 16 16 13 10 7 7 8 9 9 7 6 8
14 -0 7 -13 -15 -8 1 4 10 7 -1 3 -13 1 11 6 6 17 15 10 12 22 12 17 15 12 12 12 13 15 16 15 13 11 8 7 7 8 9 8 7 8 9 9
13 -3 10 2 8 20 19 19 10 5 4 -0 -1 -1 12 10 6 7 13 14 9 15 17 11 14 14 14 13 13 13 12 10 8 7 7 7 8 7 7 8 10 10 7 5
-1 11 -8 17 19 6 -1 6 5 13 20 21 17 5 11 19 20 13 8 10 4 -1 15 13 13 10 8 8 9 9 8 8 8 8 7 7 8 9 10 10 7 6 6 1
9 13 -2 -0 21 0 63 18 26 36 19 26 18 16 13 28 24 17 12 13 17 6 -1 12 3 4 4 7 9 10 9 7 7 8 9 11 10 10 9 7 6 0 4 8
5 13 21 0 42 21 -33 3 -7 -4 47 30 19 11 7 10 18 13 15 18 25 21 17 2 4 11 12 13 13 11 11 10 10 13 11 10 9 8 6 2 5 8 5 7
23 25 3 -3 9 -17 59 9 6 -2 -24 27 26 29 35 32 19 18 18 16 14 18 9 8 9 8 9 10 11 9 10 13 11 9 10 8 5 5 7 5 4 8 9 10
-2 21 -5 12 8 1 -27 -8 -8 -4 42 19 1 -8 -8 2 8 1 -5 -1 4 22 18 12 8 13 13 10 12 15 13 11 11 9 7 6 4 5 5 7 10 11 7 6
13 18 4 9 -10 20 1 19 23 27 1 8 6 -8 -11 -8 -9 -2 -1 16 20 12 9 8 10 12 14 15 15 13 12 9 6 5 4 6 3 5 10 11 7 6 7 9
9 -2 -1 42 16 17 40 20 4 -1 -25 -19 9 6 3 8 11 19 13 17 15 18 15 15 16 16 15 16 14 7 5 5 5 6 6 8 4 8 8 7 6 10 9 8
17 -9 -15 -14 -39 -28 -26 -25 -19 -1 -7 -5 2 9 18 1 16 15 9 19 12 7 12 14 12 19 17 6 4 5 6 7 9 4 9 1 10 10 6 9 10 7 8 10
16 9 -3 -1 5 15 25 14 9 11 6 22 -15 21 -5 7 14 15 18 24 16 12 15 19 18 10 5 5 3 4 6 9 9 8 3 11 9 8 10 8 5 9 11 10
3 4 5 2 1 5 10 16 19 20 15 35 34 11 11 14 11 8 11 16 18 16 16 18 6 4 4 3 11 5 12 12 6 4 11 7 9 8 5 7 11 10 9 8
12 2 -3 -17 25 23 15 25 13 19 21 10 0 7 23 8 9 17 8 14 15 15 12 5 4 4 5 15 -0 16 14 11 1 8 7 8 6 5 9 10 9 7 7 7
Height
3076 3076 3075 3076 3077 3078 3079 3080 3081 3083 3085 3086 3087 3091 3094 3096 3099 3103 3109 3112 3116 3120 3123 3126 3127 3130 3132 3135 3138 3141 3143 3145 3147 3148 3149 3148 3149 3150 3150 3150 3149 3149 3148 3148
3080 3078 3077 3077 3078 3079 3080 3081 3082 3084 3085 3085 3086 3087 3091 3093 3096 3101 3109 3111 3112 3115 3119 3122 3124 3125 3130 3132 3135 3137 3140 3142 3145 3145 3147 3145 3146 3145 3146 3146 3146 3146 3145 3144
3082 3082 3080 3080 3080 3081 3081 3082 3083 3084 3084 3085 3085 3085 3087 3090 3093 3097 3101 3106 3107 3109 3113 3117 3122 3126 3127 3128 3131 3133 3135 3137 3140 3142 3144 3143 3142 3141 3141 3141 3142 3142 3140 3140
3084 3083 3082 3081 3081 3082 3082 3083 3083 3083 3083 3084 3085 3082 3082 3085 3088 3092 3096 3101 3106 3105 3110 3115 3118 3123 3126 3127 3125 3128 3130 3133 3136 3138 3139 3137 3137 3137 3137 3137 3138 3136 3135 3135
3085 3082 3082 3082 3082 3082 3083 3082 3082 3082 3082 3082 3082 3084 3077 3081 3082 3085 3090 3093 3098 3101 3105 3108 3114 3118 3121 3122 3122 3124 3127 3130 3131 3135 3134 3133 3133 3133 3131 3132 3132 3131 3130 3130
3084 3082 3082 3082 3082 3082 3083 3083 3082 3082 3081 3080 3079 3080 3075 3076 3077 3080 3085 3089 3092 3097 3102 3107 3107 3112 3115 3117 3118 3118 3119 3124 3125 3126 3128 3129 3128 3127 3126 3126 3126 3125 3125 3124
3085 3084 3082 3082 3083 3082 3082 3082 3082 3083 3083 3080 3076 3077 3072 3073 3073 3076 3078 3080 3085 3089 3093 3098 3100 3105 3108 3111 3113 3114 3117 3117 3117 3118 3120 3122 3121 3120 3119 3120 3120 3120 3119 3119
3087 3085 3084 3083 3082 3082 3082 3082 3082 3083 3084 3078 3075 3070 3067 3069 3071 3072 3073 3075 3077 3081 3085 3089 3092 3095 3101 3105 3107 3108 3110 3110 3111 3110 3112 3115 3115 3113 3113 3113 3114 3114 3114 3113
3089 3086 3084 3082 3081 3082 3080 3080 3081 3080 3079 3078 3072 3068 3067 3067 3068 3068 3069 3071 3073 3075 3078 3081 3085 3089 3093 3096 3099 3101 3102 3103 3104 3105 3107 3107 3107 3106 3107 3107 3108 3108 3108 3107
3089 3085 3082 3082 3081 3080 3079 3080 3080 3079 3079 3077 3069 3066 3063 3064 3063 3062 3063 3065 3067 3069 3071 3073 3077 3082 3085 3088 3091 3092 3095 3096 3096 3098 3099 3099 3100 3100 3101 3101 3102 3102 3102 3101
3088 3087 3084 3081 3079 3078 3078 3077 3078 3077 3076 3073 3072 3063 3061 3060 3057 3055 3058 3059 3062 3063 3064 3066 3068 3072 3076 3080 3082 3085 3087 3088 3089 3090 3091 3092 3093 3093 3095 3095 3096 3096 3096 3096
3089 3085 3080 3077 3075 3075 3075 3075 3075 3076 3072 3069 3068 3057 3059 3060 3055 3053 3055 3057 3057 3058 3059 3060 3062 3065 3069 3073 3075 3077 3079 3081 3082 3083 3084 3085 3086 3088 3089 3089 3090 3090 3091 3090
3089 3084 3081 3076 3076 3073 3072 3072 3072 3071 3069 3065 3065 3054 3057 3057 3057 3056 3055 3055 3055 3055 3054 3056 3058 3061 3063 3066 3068 3071 3072 3074 3075 3076 3077 3079 3081 3082 3082 3083 3084 3084 3084 3084
3087 3083 3082 3080 3075 3073 3069 3067 3067 3067 3064 3059 3054 3049 3050 3053 3054 3055 3053 3051 3050 3050 3051 3051 3052 3055 3057 3060 3062 3064 3065 3067 3069 3070 3072 3073 3074 3076 3077 3077 3078 3078 3078 3078
3083 3080 3078 3073 3070 3066 3060 3057 3058 3056 3055 3055 3047 3048 3042 3047 3049 3049 3049 3048 3047 3047 3047 3048 3049 3050 3052 3054 3056 3057 3059 3061 3063 3065 3066 3067 3069 3070 3071 3072 3072 3072 3073 3072
3077 3073 3071 3066 3065 3060 3053 3050 3048 3046 3047 3043 3044 3036 3042 3041 3040 3041 3041 3041 3043 3044 3044 3045 3046 3047 3049 3050 3052 3053 3055 3057 3058 3060 3062 3063 3064 3065 3065 3066 3066 3067 3066 3065
3073 3069 3066 3061 3059 3055 3046 3042 3041 3039 3040 3039 3038 3038 3034 3032 3032 3033 3034 3035 3037 3038 3040 3041 3042 3044 3045 3046 3047 3049 3051 3052 3054 3055 3056 3057 3058 3059 3059 3060 3060 3060 3059 3057
3066 3065 3064 3056 3055 3053 3045 3040 3037 3036 3037 3034 3034 3033 3031 3029 3029 3029 3029 3029 3030 3032 3034 3036 3037 3038 3039 3041 3042 3044 3045 3046 3048 3049 3051 3052 3053 3053 3054 3054 3053 3052 3051 3049
3061 3060 3059 3056 3051 3043 3040 3036 3034 3033 3033 3031 3030 3029 3027 3027 3027 3026 3026 3026 3025 3026 3027 3029 3030 3031 3032 3034 3035 3037 3039 3041 3042 3044 3045 3047 3047 3048 3048 3047 3046 3045 3043 3040
3055 3054 3055 3051 3049 3044 3036 3035 3033 3031 3028 3027 3028 3027 3026 3026 3025 3025 3024 3023 3023 3023 3024 3025 3026 3027 3028 3029 3031 3032 3034 3035 3037 3039 3040 3041 3042 3042 3041 3040 3039 3037 3034 3032
3048 3046 3044 3043 3041 3034 3031 3030 3029 3031 3031 3027 3026 3024 3023 3022 3022 3020 3019 3018 3018 3017 3017 3018 3018 3020 3021 3022 3024 3026 3028 3030 3032 3034 3034 3035 3035 3035 3034 3033 3031 3029 3027 3024
3041 3040 3037 3036 3036 3028 3026 3026 3026 3026 3023 3022 3022 3021 3018 3017 3015 3014 3013 3013 3012 3011 3011 3012 3013 3014 3015 3017 3019 3022 3024 3025 3027 3027 3028 3029 3028 3028 3026 3025 3024 3022 3019 3016
3028 3029 3029 3027 3020 3022 3022 3021 3020 3019 3017 3016 3014 3013 3010 3010 3009 3008 3007 3006 3006 3006 3006 3006 3007 3008 3010 3013 3015 3017 3018 3020 3020 3021 3022 3021 3021 3020 3020 3018 3015 3014 3010 3006
3014 3020 3016 3017 3008 3011 3013 3012 3011 3010 3009 3007 3005 3004 3002 3001 2999 2999 2998 2998 2999 2999 3000 3001 3002 3004 3006 3008 3009 3010 3011 3012 3013 3014 3015 3014 3014 3013 3012 3011 3008 3005 3000 2996
3006 3008 3004 2996 2999 3001 2999 3000 3000 2999 2998 2996 2995 2993 2993 2992 2992 2992 2992 2991 2992 2993 2994 2995 2997 2999 2999 3000 3001 3003 3004 3005 3007 3007 3008 3008 3007 3006 3004 3002 2999 2995 2991 2986
2989 2990 2992 2978 2991 2990 2985 2988 2987 2985 2985 2985 2984 2983 2984 2983 2983 2983 2984 2984 2985 2986 2987 2988 2989 2990 2991 2993 2995 2996 2997 2999 3000 3001 3001 3001 3000 2998 2996 2993 2991 2986 2982 2978